Previsão horária em Cerkovische

Hoje, 1 Agosto, Domingo

Tempo Temperatura Precipitação Vento Pressão Humidade
00:00 +15°C° 0 mm 2 m/s 733 mmHg 83%
01:00 +15°C° 0 mm 2 m/s 733 mmHg 83%
02:00 +15°C° 0 mm 2 m/s 733 mmHg 84%
03:00 +15°C° 0 mm 2 m/s 733 mmHg 84%
04:00 +16°C° 0 mm 2 m/s 733 mmHg 83%
05:00 +16°C° 0 mm 2 m/s 733 mmHg 82%
06:00 +16°C° 0.2 mm 3 m/s 733 mmHg 85%
07:00 +17°C° 0.2 mm 3 m/s 733 mmHg 88%
08:00 +17°C° 0 mm 4 m/s 733 mmHg 93%
09:00 +18°C° 0.3 mm 4 m/s 733 mmHg 92%
10:00 +18°C° 0.3 mm 4 m/s 733 mmHg 92%
11:00 +19°C° 0.3 mm 4 m/s 733 mmHg 91%
12:00 +21°C° 0.2 mm 4 m/s 733 mmHg 80%
13:00 +24°C° 0.2 mm 3 m/s 733 mmHg 69%
14:00 +26°C° 0 mm 4 m/s 733 mmHg 54%
15:00 +26°C° 0 mm 4 m/s 733 mmHg 50%
16:00 +26°C° 0 mm 4 m/s 733 mmHg 45%
17:00 +27°C° 0 mm 4 m/s 733 mmHg 41%
18:00 +24°C° 0 mm 3 m/s 733 mmHg 48%
19:00 +21°C° 0 mm 3 m/s 733 mmHg 55%
20:00 +18°C° 0 mm 2 m/s 733 mmHg 62%
21:00 +18°C° 0 mm 2 m/s 734 mmHg 63%
22:00 +18°C° 0 mm 2 m/s 734 mmHg 64%
23:00 +18°C° 0 mm 1 m/s 734 mmHg 65%

Amanhã, 2 Agosto, Segunda-feira

Tempo Temperatura Precipitação Vento Pressão Humidade
00:00 +18°C° 0 mm 1 m/s 734 mmHg 65%
01:00 +18°C° 0 mm 1 m/s 734 mmHg 66%
02:00 +18°C° 0 mm 1 m/s 734 mmHg 66%
03:00 +18°C° 0 mm 1 m/s 733 mmHg 68%
04:00 +16°C° 0 mm 1 m/s 733 mmHg 70%
05:00 +16°C° 0 mm 1 m/s 733 mmHg 72%
06:00 +17°C° 0 mm 2 m/s 733 mmHg 72%
07:00 +17°C° 0 mm 2 m/s 732 mmHg 71%
08:00 +17°C° 0 mm 2 m/s 732 mmHg 71%
09:00 +19°C° 0.2 mm 3 m/s 731 mmHg 74%
10:00 +21°C° 0.2 mm 3 m/s 731 mmHg 76%
11:00 +22°C° 0.2 mm 4 m/s 730 mmHg 78%
12:00 +25°C° 0.2 mm 5 m/s 729 mmHg 71%
13:00 +27°C° 0.2 mm 5 m/s 729 mmHg 64%
14:00 +28°C° 0.2 mm 6 m/s 728 mmHg 57%
15:00 +27°C° 0.6 mm 6 m/s 727 mmHg 62%
16:00 +26°C° 0.6 mm 7 m/s 727 mmHg 66%
17:00 +23°C° 0.6 mm 7 m/s 727 mmHg 70%
18:00 +22°C° 0 mm 7 m/s 727 mmHg 70%
19:00 +20°C° 0 mm 6 m/s 728 mmHg 69%
20:00 +19°C° 0 mm 6 m/s 728 mmHg 68%
21:00 +17°C° 0 mm 5 m/s 728 mmHg 72%
22:00 +16°C° 0 mm 5 m/s 729 mmHg 77%
23:00 +15°C° 0 mm 4 m/s 729 mmHg 81%

Depois de amanhã, 3 Agosto, Terça-feira

Tempo Temperatura Precipitação Vento Pressão Humidade
00:00 +14°C° 0 mm 4 m/s 730 mmHg 84%
01:00 +14°C° 0 mm 4 m/s 730 mmHg 88%
02:00 +13°C° 0 mm 3 m/s 730 mmHg 91%
03:00 +13°C° 0 mm 3 m/s 731 mmHg 91%
04:00 +13°C° 0 mm 3 m/s 731 mmHg 91%
05:00 +13°C° 0 mm 3 m/s 731 mmHg 91%
06:00 +14°C° 0 mm 3 m/s 732 mmHg 83%
07:00 +17°C° 0 mm 4 m/s 732 mmHg 74%
08:00 +18°C° 0 mm 4 m/s 733 mmHg 66%
09:00 +19°C° 0 mm 4 m/s 733 mmHg 60%
10:00 +20°C° 0 mm 4 m/s 733 mmHg 54%
11:00 +21°C° 0 mm 5 m/s 733 mmHg 48%
12:00 +21°C° 0.2 mm 4 m/s 733 mmHg 53%
13:00 +20°C° 0.2 mm 4 m/s 733 mmHg 57%
14:00 +20°C° 0.2 mm 4 m/s 733 mmHg 62%
15:00 +20°C° 0.1 mm 4 m/s 733 mmHg 60%
16:00 +20°C° 0.1 mm 4 m/s 734 mmHg 58%
17:00 +21°C° 0.1 mm 4 m/s 734 mmHg 56%
18:00 +19°C° 0.1 mm 3 m/s 734 mmHg 65%
19:00 +17°C° 0.1 mm 2 m/s 734 mmHg 73%
20:00 +15°C° 0.1 mm 2 m/s 735 mmHg 81%
21:00 +14°C° 0 mm 2 m/s 735 mmHg 85%
22:00 +14°C° 0 mm 1 m/s 735 mmHg 88%
23:00 +13°C° 0 mm 1 m/s 736 mmHg 92%

4 Agosto, Quarta-feira

Tempo Temperatura Precipitação Vento Pressão Humidade
00:00 +12°C° 0 mm 1 m/s 736 mmHg 93%
01:00 +12°C° 0 mm 1 m/s 736 mmHg 94%
02:00 +12°C° 0 mm 1 m/s 737 mmHg 95%
03:00 +12°C° 0 mm 1 m/s 737 mmHg 94%
04:00 +12°C° 0 mm 1 m/s 737 mmHg 94%
05:00 +12°C° 0 mm 1 m/s 737 mmHg 93%
06:00 +14°C° 0 mm 1 m/s 738 mmHg 84%
07:00 +16°C° 0 mm 1 m/s 738 mmHg 75%
08:00 +19°C° 0 mm 1 m/s 738 mmHg 66%
09:00 +19°C° 0.2 mm 2 m/s 738 mmHg 61%
10:00 +20°C° 0.2 mm 2 m/s 738 mmHg 56%
11:00 +21°C° 0.2 mm 2 m/s 739 mmHg 51%
12:00 +21°C° 0.1 mm 2 m/s 739 mmHg 49%
13:00 +21°C° 0.1 mm 2 m/s 739 mmHg 47%
14:00 +21°C° 0.1 mm 2 m/s 739 mmHg 45%
15:00 +21°C° 0 mm 2 m/s 739 mmHg 46%
16:00 +21°C° 0 mm 2 m/s 739 mmHg 46%
17:00 +22°C° 0 mm 1 m/s 739 mmHg 47%
18:00 +20°C° 0 mm 1 m/s 739 mmHg 53%
19:00 +18°C° 0 mm 1 m/s 739 mmHg 59%
20:00 +15°C° 0 mm 1 m/s 740 mmHg 65%
21:00 +14°C° 0 mm 1 m/s 740 mmHg 65%
22:00 +14°C° 0 mm 1 m/s 740 mmHg 65%
23:00 +13°C° 0 mm 1 m/s 740 mmHg 65%

5 Agosto, Quinta-feira

Tempo Temperatura Precipitação Vento Pressão Humidade
00:00 +13°C° 0 mm 1 m/s 740 mmHg 65%
01:00 +13°C° 0 mm 1 m/s 740 mmHg 66%
02:00 +12°C° 0 mm 1 m/s 740 mmHg 66%
03:00 +13°C° 0 mm 1 m/s 740 mmHg 66%
04:00 +13°C° 0 mm 1 m/s 740 mmHg 66%
05:00 +14°C° 0 mm 1 m/s 740 mmHg 65%
06:00 +14°C° 0 mm 1 m/s 740 mmHg 66%
07:00 +15°C° 0 mm 1 m/s 740 mmHg 68%
08:00 +15°C° 0 mm 1 m/s 740 mmHg 69%
09:00 +16°C° 0 mm 1 m/s 740 mmHg 68%
10:00 +18°C° 0 mm 1 m/s 741 mmHg 66%
11:00 +18°C° 0 mm 1 m/s 741 mmHg 65%
12:00 +18°C° 0.1 mm 2 m/s 740 mmHg 64%
13:00 +19°C° 0.1 mm 2 m/s 740 mmHg 63%
14:00 +20°C° 0.1 mm 2 m/s 740 mmHg 62%
15:00 +20°C° 0.6 mm 2 m/s 740 mmHg 66%
16:00 +20°C° 0.6 mm 2 m/s 740 mmHg 70%
17:00 +20°C° 0.6 mm 2 m/s 740 mmHg 74%
18:00 +18°C° 0.3 mm 2 m/s 740 mmHg 81%
19:00 +16°C° 0.3 mm 2 m/s 740 mmHg 88%
20:00 +14°C° 0.3 mm 2 m/s 740 mmHg 95%
21:00 +14°C° 0 mm 2 m/s 740 mmHg 96%
22:00 +13°C° 0 mm 2 m/s 740 mmHg 97%
23:00 +13°C° 0 mm 2 m/s 740 mmHg 98%

6 Agosto, Sexta-feira

Tempo Temperatura Precipitação Vento Pressão Humidade
00:00 +13°C° 0 mm 2 m/s 739 mmHg 97%
01:00 +13°C° 0 mm 2 m/s 739 mmHg 97%
02:00 +13°C° 0 mm 2 m/s 739 mmHg 97%
03:00 +12°C° 0 mm 3 m/s 739 mmHg 96%
04:00 +13°C° 0 mm 3 m/s 739 mmHg 96%
05:00 +13°C° 0 mm 3 m/s 739 mmHg 95%
06:00 +13°C° 0 mm 3 m/s 739 mmHg 95%
07:00 +13°C° 0 mm 3 m/s 739 mmHg 94%
08:00 +14°C° 0 mm 3 m/s 739 mmHg 94%
09:00 +14°C° 0 mm 4 m/s 738 mmHg 91%
10:00 +15°C° 0 mm 4 m/s 738 mmHg 89%
11:00 +17°C° 0 mm 4 m/s 738 mmHg 86%
12:00 +17°C° 0 mm 5 m/s 738 mmHg 82%
13:00 +17°C° 0 mm 5 m/s 738 mmHg 78%
14:00 +19°C° 0 mm 5 m/s 738 mmHg 74%
15:00 +17°C° 0.4 mm 5 m/s 737 mmHg 80%
16:00 +17°C° 0.4 mm 5 m/s 737 mmHg 86%
17:00 +16°C° 0.4 mm 5 m/s 737 mmHg 92%
18:00 +16°C° 0.2 mm 5 m/s 736 mmHg 93%
19:00 +15°C° 0.2 mm 5 m/s 736 mmHg 94%
20:00 +15°C° 0.2 mm 5 m/s 736 mmHg 96%
21:00 +15°C° 0.4 mm 5 m/s 736 mmHg 96%
22:00 +15°C° 0.4 mm 5 m/s 736 mmHg 96%
23:00 +15°C° 0.4 mm 5 m/s 736 mmHg 96%
Mostrar mais

Necessitamos do seu Consentimento

A Meteoprog e os seus Fornecedores de Serviços podem armazenar e aceder a dados pessoais como cookies, identificadores do dispositivo ou outras tecnologias semelhantes existentes no seu dispositivo e processar estes dados para personalizar conteúdos e anúncios, assim como funcionalidades nas redes sociais e análise de tráfego.

  • Armazenar e/ou aceder a informações no seu dispositivo

    Os cookies, identificadores do dispositivo ou outras informações podem ser armazenados ou acedidos no seu dispositivo, para os fins acima indicados.

  • Anúncios e conteúdos personalizados, medição de anúncios e conteúdos, dados sobre o público-alvo e desenvolvimento de produtos

    Os anúncios e os conteúdos podem ser personalizados com base num perfil. Podem ser adicionados dados adicionais para uma maior personalização dos anúncios e dos conteúdos. A eficácia dos anúncios e dos conteúdos pode ser medida. Podem ser obtidas informações sobre o público que visualizou os anúncios e os conteúdos. Estes dados podem ser usados para desenvolver ou melhorar sistemas, softwares ou a experiência do utilizador.

Ao clicar em "Eu concordo”, permitirá o uso de cookies, identificadores do dispositivo e web beacons mencionados ou outras tecnologias semelhantes. As configurações do navegador do seu dispositivo podem ser alteradas.

Para certos fins, podem ser invocados interesses legítimos ao invés de consentimento. Pode ler mais informação sobre este assunto na nossa Política de Privacidade e Cookies.